Wind_Speed
1 5 9 12 11 7 9 12 10 6 8 11 11 10 8 7 7 6 5 5 5 8 11 12 13 12 12 12 13 12 13 13 14 15 15 16 17 18 18 20 22 23 24
2 2 6 9 6 6 9 12 8 8 9 12 12 10 8 8 6 6 5 5 7 10 11 12 12 11 11 12 11 12 12 13 14 14 16 16 17 18 20 21 22 24 26
3 5 6 8 8 10 11 12 10 8 11 12 11 10 8 7 6 5 5 6 9 10 10 11 10 11 11 10 10 11 12 13 14 14 15 16 17 18 19 21 24 25 26
8 6 8 9 10 10 11 11 8 9 12 14 11 9 7 6 5 4 6 9 10 9 10 10 10 10 9 9 9 10 11 12 12 14 14 16 17 18 20 23 24 25 25
8 5 6 9 10 10 11 11 10 12 14 12 10 7 6 5 4 6 10 10 8 8 9 10 10 9 8 7 8 10 11 10 11 12 13 14 15 17 19 20 21 22 22
7 6 5 8 10 12 14 11 12 12 14 11 8 6 3 3 4 8 9 7 7 8 9 9 8 7 6 7 8 8 7 8 10 11 12 13 14 15 16 18 19 20 23
6 6 6 6 10 14 14 12 13 11 13 11 8 4 2 2 7 8 7 6 8 9 9 8 7 5 5 5 6 7 6 7 8 10 11 13 14 13 14 16 19 22 24
6 7 5 9 12 15 15 14 14 13 13 11 7 5 3 4 8 7 5 7 8 9 8 7 5 4 3 5 4 4 5 5 6 8 10 11 12 12 13 16 20 24 27
8 9 10 11 15 17 15 13 14 12 12 10 8 7 6 8 9 8 8 9 9 8 7 6 4 2 2 2 1 2 3 4 6 7 7 10 12 14 17 20 23 27 30
9 11 12 15 13 16 17 16 14 14 10 11 9 8 8 10 10 9 10 10 8 7 5 4 2 1 1 1 2 4 3 5 6 6 8 11 14 18 21 24 26 29 31
10 11 13 16 17 15 15 16 15 14 14 13 10 9 11 11 9 9 9 8 7 6 5 4 3 3 3 4 5 6 6 7 9 10 11 13 17 20 25 28 31 32 34
10 12 13 15 18 18 18 18 17 15 14 14 12 12 13 12 10 10 11 10 9 7 6 6 6 6 6 7 8 9 10 11 13 15 16 19 22 25 28 31 32 35 36
10 13 12 13 14 14 15 14 12 11 11 12 13 14 15 13 12 13 13 11 9 8 9 9 9 9 9 10 11 12 15 16 18 19 20 22 25 28 30 32 34 36 37
13 14 13 13 12 12 10 9 8 7 8 9 12 15 15 12 12 13 12 11 10 11 11 12 12 12 13 14 15 16 18 20 22 23 24 27 29 30 31 32 35 37 38
17 15 15 14 13 10 10 10 9 9 9 10 11 14 14 13 13 13 12 12 13 13 13 14 14 15 16 18 19 21 22 23 25 27 28 30 31 32 34 35 37 38 40
20 19 17 17 15 13 13 13 13 12 11 11 13 14 15 15 16 15 13 13 14 15 16 16 16 17 19 21 22 23 23 25 27 28 30 31 32 34 35 37 38 40 42
20 21 21 21 20 18 16 14 16 17 15 12 13 16 16 16 16 16 15 16 17 17 17 18 19 20 21 22 23 25 26 27 29 30 31 32 33 35 36 38 41 43 45
21 22 23 22 21 20 20 20 19 20 18 16 15 16 17 16 17 18 19 20 19 18 19 20 21 23 23 23 24 25 27 28 30 32 34 35 36 38 40 41 43 46 48
20 23 23 22 25 24 24 21 22 20 20 19 18 19 20 20 20 22 24 23 20 21 21 21 23 26 26 26 28 29 30 31 33 34 35 36 39 40 42 43 45 47 48
19 21 23 24 22 22 23 23 21 21 21 21 22 22 23 22 23 26 26 25 23 23 25 26 27 29 29 29 30 31 33 34 36 37 38 40 41 43 44 46 48 50 51
21 21 23 21 23 20 24 27 27 27 25 26 27 27 25 26 26 28 30 29 28 28 30 30 31 32 34 34 35 35 36 36 38 40 41 43 44 46 48 49 51 52 53
25 23 21 23 22 21 22 26 26 27 25 27 26 26 27 28 30 30 30 31 31 31 32 33 34 35 36 36 38 39 39 39 41 42 43 45 47 48 50 51 52 53 55
25 26 26 26 25 23 23 22 23 23 24 24 27 29 30 30 30 30 31 32 33 35 36 37 38 38 39 40 40 43 44 43 43 44 46 47 49 51 52 53 55 56 56
30 32 32 29 28 25 24 22 22 23 23 26 27 28 28 30 30 31 31 33 35 38 38 40 42 42 42 42 43 45 47 47 48 47 48 50 52 54 55 55 56 57 57
33 36 37 35 31 28 26 25 24 22 23 26 26 27 29 30 31 32 33 34 35 37 40 42 43 43 44 44 45 45 46 49 51 50 50 52 54 55 57 57 58 57 58
34 32 36 38 36 33 31 29 27 27 28 28 29 29 30 31 31 31 34 37 37 39 41 43 43 43 46 46 46 48 49 51 52 54 54 55 56 56 57 58 58 59 58
Wind_Direction
135 161 132 123 128 104 115 141 128 110 112 117 122 120 125 124 125 125 117 108 100 109 115 108 101 91 84 85 83 88 82 74 66 56 53 49 47 41 35 30 27 23 20
248 207 164 168 170 135 139 149 129 116 126 122 126 121 118 112 117 120 109 109 119 119 111 105 98 93 93 93 96 86 78 65 60 57 52 49 44 38 33 29 27 22 16
97 160 163 167 170 163 164 154 161 129 122 123 118 113 109 112 107 99 122 135 129 123 114 106 105 107 101 101 90 79 66 62 60 56 50 44 40 35 33 30 24 16 11
79 109 144 153 158 159 165 166 156 132 127 127 122 114 105 112 115 137 142 142 135 126 116 114 111 105 112 102 85 77 73 67 57 51 46 41 37 34 32 26 18 13 10
78 79 132 145 144 156 151 143 147 122 126 125 124 118 115 126 135 144 149 143 131 127 119 116 116 125 114 97 80 69 64 59 52 50 44 40 36 37 31 24 17 13 10
70 80 94 135 141 152 145 141 135 129 130 131 131 129 116 121 148 146 147 138 134 131 127 127 134 127 116 95 87 83 72 56 50 46 37 35 34 32 26 19 14 8 7
79 82 106 122 143 141 152 142 134 140 140 139 136 151 149 149 145 154 152 147 146 142 142 147 144 135 120 98 84 75 59 53 46 38 34 29 21 19 12 6 359 354 350
84 89 128 131 134 153 164 152 142 146 144 147 147 172 165 173 166 164 166 164 160 160 161 159 155 148 108 77 67 63 54 42 32 30 29 21 12 5 349 343 341 340 341
112 113 133 142 148 149 158 164 158 154 156 158 175 182 185 178 180 182 186 182 182 181 175 175 178 159 94 100 52 4 6 7 9 8 6 360 351 349 341 335 335 336 337
130 131 139 143 151 157 159 161 164 168 174 180 191 192 187 187 196 198 198 199 197 200 201 208 201 211 194 244 284 301 325 327 331 327 333 332 332 330 329 328 328 329 328
157 152 146 153 153 157 161 164 171 180 185 196 196 192 190 196 213 216 214 220 226 230 237 243 248 253 257 262 275 289 302 303 306 308 308 313 316 320 322 323 323 322 323
177 174 161 160 160 163 167 175 182 187 192 200 202 192 194 201 217 220 223 229 238 249 263 259 258 263 269 279 287 290 298 299 299 302 305 309 311 314 317 316 319 322 321
191 182 180 176 174 175 174 181 191 196 211 215 206 202 203 211 218 222 232 241 250 259 262 267 273 278 285 286 288 292 296 300 298 299 303 306 307 309 312 316 318 318 319
202 193 187 181 192 194 202 205 212 229 242 248 227 212 218 220 225 230 245 257 259 267 273 279 283 289 293 297 298 301 302 302 302 304 304 305 307 309 311 314 315 317 319
206 202 201 197 193 215 221 223 236 243 252 255 231 228 225 232 236 242 253 258 266 277 282 284 289 295 297 300 305 307 308 309 307 308 309 310 312 312 313 315 315 317 318
217 217 216 218 219 222 234 238 242 250 261 263 241 233 239 245 242 243 250 258 269 276 280 286 292 297 300 304 306 305 308 308 309 310 309 310 310 312 314 315 316 317 317
229 225 229 234 230 237 241 253 252 248 247 256 257 246 241 252 259 260 263 266 272 278 286 294 296 297 302 304 304 305 309 310 310 310 309 309 310 312 313 315 316 317 318
234 232 237 235 241 244 252 258 260 246 247 248 247 246 249 254 256 258 263 265 271 280 287 292 296 298 301 301 302 305 307 310 310 311 313 313 313 314 314 316 316 317 317
233 239 240 243 247 250 256 262 259 249 246 247 245 239 237 239 242 245 250 255 259 269 279 287 291 295 299 304 306 308 309 312 313 313 315 314 314 314 313 314 315 316 316
241 240 241 243 243 247 250 254 256 245 244 249 247 248 248 249 249 248 252 259 264 273 279 283 286 291 297 303 307 308 308 311 311 312 314 313 313 313 313 314 315 316 317
241 237 241 242 243 241 245 243 243 248 258 260 260 260 250 247 250 251 255 260 266 269 272 279 286 292 298 303 306 308 308 308 309 310 311 311 312 312 312 314 315 316 317
244 244 242 243 242 239 242 247 250 248 248 252 254 254 253 250 253 256 257 259 263 268 274 278 283 288 292 296 299 301 304 306 306 307 307 309 309 310 311 312 314 315 315
243 246 243 242 241 239 241 245 249 252 250 248 247 248 253 263 265 264 267 267 267 271 275 279 282 285 288 292 294 297 300 302 301 302 304 306 307 308 310 311 312 313 313
247 244 244 243 243 240 239 240 246 248 250 251 253 256 258 261 265 267 267 267 267 269 272 276 281 285 288 290 293 296 299 300 301 302 303 305 306 307 308 309 310 311 312
250 247 243 244 246 245 242 239 238 246 250 254 256 257 259 260 262 266 268 268 270 272 276 279 283 286 288 290 293 294 295 297 300 301 302 302 303 305 306 308 309 310 310
246 252 249 247 246 245 245 243 240 239 244 250 254 255 258 261 265 267 270 272 274 276 278 281 283 285 287 289 291 293 295 298 298 300 300 301 302 304 305 306 307 307 308
Height
5869 5870 5870 5871 5872 5873 5873 5874 5876 5878 5879 5880 5881 5882 5884 5885 5885 5885 5885 5885 5885 5884 5885 5885 5885 5885 5884 5884 5884 5884 5883 5882 5881 5880 5879 5878 5877 5875 5873 5872 5871 5868 5865
5870 5869 5870 5871 5872 5873 5875 5876 5878 5880 5881 5882 5883 5884 5885 5886 5886 5885 5886 5886 5885 5885 5886 5886 5886 5885 5885 5885 5885 5885 5884 5883 5882 5881 5880 5878 5877 5876 5874 5872 5870 5867 5865
5870 5870 5871 5872 5872 5874 5876 5878 5880 5882 5882 5883 5885 5885 5886 5886 5887 5887 5886 5886 5886 5887 5887 5886 5886 5886 5886 5887 5886 5885 5885 5883 5882 5881 5880 5879 5878 5876 5874 5872 5870 5867 5865
5870 5871 5871 5872 5873 5875 5877 5879 5882 5883 5884 5885 5886 5887 5887 5887 5887 5887 5887 5887 5888 5888 5888 5888 5887 5887 5888 5887 5886 5886 5885 5884 5883 5882 5881 5879 5878 5876 5874 5872 5869 5867 5864
5872 5872 5872 5873 5875 5876 5877 5880 5882 5884 5886 5887 5887 5888 5888 5888 5888 5888 5889 5889 5890 5889 5889 5889 5888 5889 5888 5888 5887 5886 5885 5884 5883 5882 5881 5879 5878 5876 5873 5871 5869 5867 5864
5873 5874 5874 5875 5876 5877 5878 5881 5884 5885 5886 5887 5888 5888 5888 5889 5889 5889 5890 5890 5890 5890 5890 5890 5889 5889 5888 5887 5887 5886 5885 5884 5884 5883 5881 5879 5877 5875 5872 5871 5869 5866 5863
5875 5875 5875 5876 5876 5877 5879 5882 5885 5886 5887 5888 5888 5888 5889 5889 5889 5890 5890 5891 5891 5891 5891 5890 5890 5889 5888 5888 5887 5886 5885 5885 5883 5882 5880 5879 5877 5875 5873 5871 5868 5865 5862
5875 5875 5876 5877 5877 5878 5881 5883 5884 5886 5887 5888 5888 5889 5889 5889 5890 5890 5891 5891 5891 5891 5891 5890 5890 5889 5889 5889 5887 5886 5885 5884 5882 5881 5880 5878 5876 5874 5872 5870 5867 5864 5860
5876 5876 5877 5878 5879 5880 5882 5884 5884 5886 5887 5887 5888 5888 5889 5889 5890 5890 5890 5890 5891 5891 5890 5890 5890 5889 5889 5888 5887 5886 5885 5884 5883 5881 5879 5877 5875 5874 5871 5868 5865 5861 5857
5877 5877 5878 5878 5880 5880 5882 5884 5884 5885 5887 5888 5888 5889 5889 5889 5890 5890 5890 5891 5891 5890 5890 5890 5889 5888 5888 5887 5886 5885 5885 5883 5882 5880 5878 5876 5874 5871 5868 5865 5861 5857 5854
5877 5878 5879 5879 5881 5881 5882 5884 5885 5885 5886 5887 5887 5888 5888 5889 5890 5891 5892 5892 5892 5891 5890 5889 5889 5888 5887 5886 5885 5884 5883 5882 5880 5878 5875 5873 5870 5868 5865 5862 5858 5854 5850
5877 5878 5879 5880 5880 5881 5882 5883 5884 5884 5885 5885 5885 5886 5887 5888 5889 5890 5891 5890 5890 5889 5889 5888 5887 5887 5886 5886 5885 5883 5882 5880 5877 5875 5873 5870 5868 5865 5862 5858 5854 5850 5847
5876 5877 5879 5880 5881 5881 5882 5883 5884 5885 5885 5885 5885 5886 5886 5886 5887 5888 5889 5889 5889 5888 5888 5887 5886 5886 5885 5884 5883 5881 5879 5877 5875 5872 5870 5867 5864 5861 5858 5854 5850 5846 5842
5875 5876 5877 5879 5881 5882 5882 5883 5884 5885 5885 5885 5885 5886 5885 5886 5887 5888 5889 5889 5888 5888 5887 5886 5886 5884 5883 5882 5880 5879 5877 5875 5873 5870 5867 5864 5861 5858 5854 5849 5845 5842 5838
5873 5875 5876 5878 5879 5881 5881 5881 5883 5884 5884 5883 5883 5884 5885 5886 5887 5887 5887 5887 5887 5887 5886 5885 5884 5883 5881 5880 5878 5877 5875 5873 5870 5867 5864 5861 5858 5854 5850 5846 5841 5836 5832
5871 5873 5875 5876 5878 5879 5880 5880 5881 5882 5883 5883 5882 5882 5883 5884 5884 5884 5884 5885 5885 5884 5883 5882 5881 5880 5879 5877 5876 5874 5871 5868 5865 5863 5859 5856 5852 5848 5844 5840 5835 5830 5825
5868 5871 5872 5873 5875 5877 5878 5878 5878 5879 5880 5880 5881 5881 5880 5881 5883 5884 5884 5883 5882 5881 5880 5880 5878 5877 5875 5874 5872 5870 5868 5865 5861 5858 5854 5850 5846 5842 5838 5834 5829 5823 5818
5864 5866 5869 5872 5871 5873 5875 5876 5876 5875 5875 5876 5877 5878 5879 5879 5879 5880 5880 5879 5878 5878 5878 5877 5875 5873 5871 5869 5867 5865 5862 5860 5856 5853 5850 5846 5841 5837 5832 5828 5823 5818 5812
5861 5862 5864 5868 5869 5870 5871 5871 5872 5872 5872 5872 5872 5872 5872 5873 5873 5874 5873 5872 5873 5872 5872 5871 5869 5867 5865 5864 5862 5860 5857 5855 5852 5848 5844 5840 5836 5831 5826 5822 5817 5811 5804
5857 5858 5860 5862 5864 5864 5866 5867 5867 5867 5867 5869 5869 5869 5869 5869 5869 5868 5868 5869 5869 5869 5867 5865 5863 5862 5860 5859 5857 5855 5853 5850 5847 5843 5839 5835 5830 5825 5820 5815 5810 5804 5798
5852 5853 5854 5857 5858 5859 5859 5860 5860 5861 5863 5864 5864 5865 5864 5863 5863 5863 5863 5864 5863 5863 5861 5859 5858 5856 5854 5853 5851 5848 5846 5843 5839 5836 5831 5828 5823 5818 5813 5808 5803 5797 5791
5846 5848 5850 5850 5852 5853 5854 5854 5857 5857 5858 5859 5859 5859 5859 5859 5858 5858 5859 5859 5858 5857 5855 5854 5852 5851 5848 5846 5843 5841 5839 5837 5831 5827 5823 5819 5815 5811 5805 5800 5795 5788 5782
5842 5844 5843 5843 5845 5847 5848 5849 5851 5853 5853 5854 5853 5852 5852 5853 5855 5855 5854 5854 5853 5851 5849 5847 5844 5843 5842 5839 5835 5832 5829 5827 5823 5820 5815 5810 5806 5801 5797 5792 5786 5779 5773
5836 5834 5836 5837 5839 5840 5842 5843 5845 5846 5847 5847 5847 5847 5847 5847 5847 5848 5847 5846 5844 5843 5841 5839 5837 5835 5833 5831 5829 5825 5820 5817 5814 5812 5807 5802 5797 5792 5787 5782 5776 5770 5764
5827 5829 5828 5830 5834 5835 5835 5837 5838 5841 5841 5839 5840 5841 5841 5841 5840 5839 5839 5838 5837 5835 5834 5832 5830 5828 5825 5822 5819 5815 5812 5807 5803 5801 5798 5792 5787 5782 5777 5772 5766 5759 5753
5820 5822 5823 5824 5826 5828 5829 5830 5831 5832 5833 5833 5833 5833 5833 5834 5835 5834 5832 5830 5829 5828 5826 5824 5822 5819 5816 5813 5810 5806 5802 5798 5793 5788 5785 5781 5777 5773 5766 5761 5755 5748 5741